ORBCOMM FM31 [-]

Last updated on Thu Dec 28 2023 00:02:55 GMT+0000 (Coordinated Universal Time)

1 25981U 99065B 23361.38726776 .00001822 00000+0 68683-3 0 9991 2 25981 45.0227 103.6210 0004898 220.0704 139.9783 14.34719667256702

Satellite not in orbit

ORBCOMM FM31 [-]